Location: Namasale
(1.5000°N, 32.6167°E)
Time: 11:53:54
(UTC+00:00)

CZ-2C R/B - Pass Details

Date: 09 April 2020
Orbit: 639 x 705 km, 98.4° (Epoch: 05 June)

Event Time Altitude Azimuth Distance (km) Brightness Sun altitude
Rises 17:22:09 0° 11° (N) 2,997 7.1 -22.3°
Reaches altitude 10° 17:24:23 10° 10° (N) 2,076 6.2 -22.9°
Maximum altitude 17:28:55 84° 282° (WNW) 662 3.6 -24.0°
Drops below altitude 10° 17:33:23 10° 194° (SSW) 2,048 6.3 -25.1°
Sets 17:35:35 0° 193° (SSW) 2,953 7.1 -25.6°
